Weather History for KDLN - March, 2013

Change the Weather History Date:

Sunday, March 10, 2013

  Actual Average Record
Temperature  
Mean Temperature 34 °F 33 °F  
Max Temperature 50 °F 45 °F 66 °F (1972)
Min Temperature 18 °F 21 °F -20 °F (1948)
Degree Days  
Heating Degree Days 31    
Month to date heating degree days 321  
Since 1 July heating degree days 5736  
Cooling Degree Days 0    
Month to date cooling degree days 0  
Year to date cooling degree days 0  
Moisture  
Dew Point 13 °F    
Average Humidity 41    
Maximum Humidity 71    
Minimum Humidity 11    
Precipitation  
Precipitation 0.00 in 0.01 in 0.52 in (1954)
Month to date precipitation 0.07 0.13  
Year to date precipitation 0.33 0.65  
Snow  
Snow 0.00 in - - ()
Snow Depth 0.00 in    
Sea Level Pressure  
Sea Level Pressure 30.25 in    
Wind  
Wind Speed 9 mph (SW)    
Max Wind Speed 28 mph    
Max Gust Speed 33 mph    
Visibility 9 miles    
Events      
T = Trace of Precipitation, MM = Missing Value Source: NWS Daily Summary

Daily Weather History Graph

Daily Weather History Graph

Search for Another Location

Airport or City:

Trip Planner

Search our weather history database for the weather conditions in past years. The results will help you decide how hot, cold, wet, or windy it might be!

Date:

Astronomy

Mar. 10, 2013 Rise Set
Actual Time 7:51 AM MDT 7:30 PM MDT
Civil Twilight 7:22 AM MDT 7:59 PM MDT
Nautical Twilight 6:47 AM MDT 8:33 PM MDT
Astronomical Twilight 6:13 AM MDT 9:08 PM MDT
Moon 6:55 AM MDT (3/10) 6:41 PM MDT (3/10)
Length of Visible Light 12h 37m
Length of Day
11h 38m
Waning Crescent, 1% of the Moon is Illuminated
Mar 10
Waning Crescent
Mar 11
New
Mar 19
First Quarter
Mar 27
Full
Apr 2
Last Quarter

Hourly Weather History & Observations

Time (MDT) Temp. Windchill Dew Point Humidity Pressure Visibility Wind Dir Wind Speed Gust Speed Precip Events Conditions
12:53 AM 26.1 °F 16.2 °F 16.0 °F 66% 30.32 in 10.0 mi South 10.4 mph - N/A   Clear
1:53 AM 24.1 °F 14.4 °F 16.0 °F 71% 30.34 in 10.0 mi SSW 9.2 mph - N/A   Clear
3:53 AM 25.0 °F 15.5 °F 16.0 °F 69% 30.32 in 10.0 mi SSW 9.2 mph - N/A   Clear
4:53 AM 25.0 °F 19.3 °F 15.1 °F 66% 30.35 in 10.0 mi SSW 4.6 mph - N/A   Clear
6:53 AM 21.0 °F 14.6 °F 12.9 °F 71% 30.37 in 10.0 mi SW 4.6 mph - N/A   Clear
7:53 AM 23.0 °F 14.7 °F 14.0 °F 68% 30.38 in 10.0 mi SSW 6.9 mph - N/A   Clear
8:53 AM 25.0 °F 20.7 °F 14.0 °F 63% 30.41 in 10.0 mi SW 3.5 mph - N/A   Clear
9:03 AM 26.6 °F - 15.8 °F 64% 30.29 in 1.5 mi Calm Calm - N/A   Haze
9:06 AM 26.6 °F - 14.0 °F 59% 30.29 in 0.8 mi Calm Calm - N/A   Haze
9:15 AM 24.8 °F 19.1 °F 15.8 °F 69% 30.29 in 1.5 mi West 4.6 mph - N/A   Haze
9:18 AM 24.8 °F - 15.8 °F 69% 30.29 in 3.0 mi Calm Calm - N/A   Haze
9:53 AM 27.0 °F 20.5 °F 16.0 °F 63% 30.39 in 10.0 mi SW 5.8 mph - N/A   Clear
10:53 AM 34.0 °F - 18.0 °F 52% 30.35 in 10.0 mi Calm Calm - N/A   Clear
11:53 AM 37.9 °F 35.5 °F 17.1 °F 43% 30.31 in 10.0 mi Variable 3.5 mph - N/A   Clear
12:53 PM 42.1 °F 39.2 °F 16.0 °F 35% 30.27 in 10.0 mi NNW 4.6 mph - N/A   Clear
1:53 PM 45.0 °F - 14.0 °F 29% 30.21 in 10.0 mi Calm Calm - N/A   Clear
2:53 PM 48.0 °F - 9.0 °F 21% 30.18 in 10.0 mi SW 4.6 mph - N/A   Clear
3:53 PM 46.9 °F - 12.0 °F 24% 30.15 in 10.0 mi NW 4.6 mph - N/A   Mostly Cloudy
4:53 PM 48.9 °F - 7.0 °F 18% 30.13 in 10.0 mi SW 18.4 mph - N/A   Clear
5:53 PM 48.0 °F - -4.0 °F 11% 30.15 in 10.0 mi WSW 23.0 mph 28.8 mph N/A   Overcast
6:53 PM 46.9 °F - 3.0 °F 16% 30.15 in 10.0 mi WSW 23.0 mph 27.6 mph N/A   Overcast
8:53 PM 41.0 °F 35.2 °F 8.1 °F 26% 30.17 in 10.0 mi South 9.2 mph - N/A   Overcast
9:53 PM 37.0 °F 29.8 °F 17.1 °F 44% 30.19 in 10.0 mi SSW 10.4 mph - N/A   Overcast
10:53 PM 37.0 °F 31.0 °F 15.1 °F 41% 30.14 in 10.0 mi South 8.1 mph - N/A   Mostly Cloudy
11:53 PM 41.0 °F 34.3 °F 15.1 °F 35% 30.10 in 10.0 mi South 11.5 mph 17.3 mph N/A   Overcast
12:53 AM 41.0 °F 30.7 °F 21.9 °F 47% 30.07 in 10.0 mi WSW 25.3 mph 33.4 mph N/A   Overcast